Tracking 32936 objects as of 17-Jan-2026
HD Live streaming from Space Station
objects crossing your sky now

DMSP 5D-2 F13 DEB

Track DMSP 5D-2 F13 DEB now!
10-day predictions


NORAD ID: 40580
Int'l Code: 1995-015EP
Perigee: 781.0 km
Apogee: 798.5 km
Inclination: 98.8 °
Period: 100.5 minutes
Semi major axis: 7160 km
RCS: Unknown
Launch date: March 24, 1995
Source: United States (US)
Launch site: AIR FORCE WESTERN TEST RANGE (AFWTR)

Note: This is SATELLITE DEBRIS
Your satellite tracking list
Your tracking list is empty




NASA's NSSDC Master Catalog

Two Line Element Set (TLE):
1 40580U 95015EP  26013.88148171  .00002834  00000-0  10565-2 0  9993
2 40580  98.8396  45.2948 0012257  20.1632 340.0033 14.32736255557766
Source of the keplerian elements: AFSPC